[[{"header":{"parameterUnit":"m.s-1","parameterCategory":1,"la1":30.2991,"la2":30.254,"lo1":-89.0895,"lo2":-89.0444,"dy":0.0017,"dx":0.0017,"nx":28,"ny":28,"refTime":"2025-11-17T03:00:00:Z","depth":0,"parameterNumber":2,"parameterNumberName":"U-component_of_WINDS"},"data":[0,0,0,0,0,0,0,0,0,0,0,0,0,0,0,0,0,0,0,0,0,0,0,0,0,0,0,0,0,0,0,0,0,0,0,0,0,0,0,0,0,0,0,0,0,0,0,0,0,0,0,0,0,0,0,0,0,0,-1.9449,-1.9449,0,-1.9436,-1.9435,-1.9435,-1.9393,-1.9392,-1.9391,-1.939,-1.9377,-1.9378,-1.9378,0,0,0,0,0,0,0,0,0,0,0,0,0,-1.9441,-1.9442,-1.9449,-1.9449,-1.9449,-1.9436,-1.9435,-1.9435,-1.9393,-1.9392,-1.9391,-1.9389,-1.9377,-1.9378,-1.9379,0,0,0,0,0,0,0,0,0,0,0,0,0,-1.9438,-1.9442,-1.9449,-1.9426,-1.9424,-1.9436,-1.9435,-1.9435,-1.9393,-1.9392,-1.939,-1.9389,-1.9377,-1.9378,-1.9379,-1.9412,0,0,-1.9381,-1.9382,0,0,0,0,0,0,0,0,-1.9438,-1.9438,-1.943,-1.9428,-1.9425,-1.9414,-1.9428,-1.9428,-1.9393,-1.9405,-1.939,-1.9388,-1.9391,-1.9391,-1.9391,-1.9412,-1.9411,-1.9381,-1.9382,-1.9382,-1.9382,0,0,0,0,0,0,0,-1.9438,-1.9439,-1.9444,-1.9429,-1.9427,-1.9417,-1.9415,-1.9428,-1.9406,-1.9404,-1.9401,-1.9399,-1.9389,-1.939,-1.9391,-1.9411,-1.9381,-1.9382,-1.9382,-1.9383,-1.9461,-1.9462,0,0,0,0,0,0,-1.9442,-1.9439,-1.9444,-1.9443,-1.9428,-1.9419,-1.9416,-1.9419,-1.9406,-1.9402,-1.9401,-1.9398,-1.939,-1.939,-1.939,-1.9429,-1.9382,-1.9383,-1.9383,-1.9459,-1.9461,-1.9463,0,0,0,0,0,0,-1.9442,-1.9443,-1.9445,-1.944,-1.944,-1.942,-1.9424,-1.942,-1.9421,-1.9403,-1.94,-1.9405,-1.9389,-1.9389,-1.9407,-1.9428,-1.9383,-1.9384,-1.9457,-1.946,-1.9462,-1.9507,0,0,0,0,0,0,-1.9442,-1.9443,-1.9454,-1.9441,-1.944,-1.9461,-1.9425,-1.9421,-1.9422,-1.9418,-1.9407,-1.9404,-1.9388,-1.9406,-1.9408,-1.9428,-1.9385,-1.9455,-1.9458,-1.9461,-1.9504,-1.9511,-1.9517,0,0,0,0,0,-1.9442,-1.9467,-1.9455,-1.9456,-1.9454,-1.9463,-1.9462,-1.9443,-1.9424,-1.9436,-1.9426,-1.9404,-1.9426,-1.9409,-1.941,-1.9431,-1.9454,-1.9458,-1.9461,-1.9501,-1.951,-1.9517,0,0,0,0,0,0,-1.9483,-1.9465,-1.9451,-1.9473,-1.947,-1.9455,-1.9469,-1.9452,-1.9454,-1.945,-1.9426,-1.9424,-1.9447,-1.9441,-1.9422,-1.9464,-1.9437,-1.9441,-1.9466,-1.9475,-1.9481,-1.9481,-1.9385,0,0,0,0,0,-1.9495,-1.9503,-1.9487,-1.9508,-1.9507,-1.9489,-1.9492,-1.9477,-1.9473,-1.9471,-1.9462,-1.9459,-1.9466,-1.947,-1.9475,-1.9504,-1.9502,-1.9519,-1.9526,-1.9532,-1.9535,-1.9551,-1.9559,-1.9475,-1.9475,-1.9474,0,0,-1.9519,-1.951,-1.9516,-1.9516,-1.9512,-1.9521,-1.9488,-1.9499,-1.9506,-1.9473,-1.949,-1.9484,-1.9479,-1.9504,-1.9514,-1.9499,-1.9558,-1.9536,-1.9541,-1.9541,-1.9556,-1.9564,-1.9571,-1.9477,-1.9477,-1.9476,0,0,-1.9568,-1.9562,-1.9579,-1.9576,-1.957,-1.9559,-1.9563,-1.9552,-1.9547,-1.9563,-1.954,-1.9549,-1.956,-1.9558,-1.9559,-1.9611,-1.9592,-1.9614,-1.9647,-1.9664,-1.967,-1.9676,-1.9695,-1.9702,-1.9617,-1.9617,-1.9618,0,-1.9598,-1.961,-1.959,-1.9603,-1.9605,-1.9577,-1.9595,-1.9593,-1.959,-1.9592,-1.9576,-1.9591,-1.9586,-1.961,-1.9623,-1.9625,-1.963,-1.9613,-1.9671,-1.9677,-1.9682,-1.97,-1.9707,-1.962,-1.962,-1.962,-1.9619,0,-1.9649,-1.9658,-1.9674,-1.9671,-1.9674,-1.969,-1.9673,-1.968,-1.9666,-1.9657,-1.9676,-1.967,-1.9673,-1.9679,-1.9665,-1.9702,-1.9693,-1.9675,-1.9646,-1.9693,-1.9709,-1.9716,-1.9624,-1.9623,-1.9622,-1.9621,0,0,-1.972,-1.9708,-1.9714,-1.9714,-1.9707,-1.9714,-1.973,-1.9734,-1.974,-1.974,-1.9753,-1.9765,-1.9749,-1.975,-1.9736,-1.9751,-1.9794,-1.9731,-1.9731,-1.9743,-1.9836,-1.9849,-1.9857,-1.9783,-1.9784,-1.9785,-1.9836,0,-1.9766,-1.979,-1.9775,-1.9802,-1.9812,-1.9787,-1.9801,-1.98,-1.9793,-1.98,-1.9793,-1.9802,-1.9779,-1.978,-1.9794,-1.9786,-1.9812,-1.9782,-1.9795,-1.9796,-1.9795,-1.9865,-1.9878,-1.9927,-1.9842,-1.9843,-1.9844,0,-1.9821,-1.9824,-1.9853,-1.9846,-1.985,-1.9862,-1.9866,-1.9874,-1.9873,-1.9867,-1.987,-1.9854,-1.987,-1.9844,-1.9868,-1.9848,-1.9853,-1.9851,-1.9852,-1.9851,-1.9821,-1.9866,-1.9941,-1.9948,-1.9854,-1.9853,-1.9852,0,-1.987,-1.9881,-1.99,-1.9901,-1.9893,-1.9903,-1.9901,-1.9898,-1.9903,-1.9907,-1.991,-1.9916,-1.9919,-1.9925,-1.9912,-1.9894,-1.9938,-1.9911,-1.9934,-1.9935,-1.9943,-1.9942,-2.002,-1.9948,-1.9948,-1.9948,-1.9948,0,-1.9922,-1.994,-1.9922,-1.9934,-1.9955,-1.9938,-1.996,-1.9955,-1.9954,-1.9965,-1.9945,-1.9957,-1.9939,-1.995,-1.994,-1.9962,-1.9964,-1.996,-1.9957,-1.9961,-1.9961,-1.9963,-1.9959,-1.995,-1.9949,-1.9949,-1.9949,0,-1.9978,-1.9967,-1.9986,-1.9979,-1.9978,-1.9994,-1.9988,-2.0,-1.9993,-2.0007,-2.001,-1.9999,-2.0011,-1.9999,-2.001,-2.0004,-2.0033,-2.0025,-2.0033,-2.003,-2.0054,-2.0052,-2.0134,-2.0145,-2.0068,-2.0068,-2.0069,0,-2.0011,-2.0025,-2.002,-2.0027,-2.0026,-2.0036,-2.0041,-2.0026,-2.0032,-2.0034,-2.0045,-2.0055,-2.0062,-2.0082,-2.0076,-2.0085,-2.0077,-2.0105,-2.0078,-2.0082,-2.0077,-2.0076,-2.0078,-2.011,-2.0111,-2.0112,-2.0112,0,-2.0071,-2.0066,-2.0073,-2.0079,-2.0086,-2.009,-2.0092,-2.0099,-2.0084,-2.0092,-2.0104,-2.011,-2.0122,-2.0132,-2.014,-2.0139,-2.0124,-2.0122,-2.0127,-2.0131,-2.0134,-2.0133,-2.0047,-2.0119,-2.0118,-2.0118,-2.0118,-2.0117,-2.0117,-2.0129,-2.0128,-2.0137,-2.0138,-2.0142,-2.0153,-2.0148,-2.0157,-2.0165,-2.0157,-2.0171,-2.0173,-2.0181,-2.0183,-2.0195,-2.0183,-2.0192,-2.0194,-2.0196,-2.0199,-2.0134,-2.0197,-2.0197,-2.0196,-2.0196,-2.0196,0,-2.0175,-2.0174,-2.0183,-2.0188,-2.0197,-2.0183,-2.0186,-2.0194,-2.0207,-2.0209,-2.0217,-2.0232,-2.0243,-2.0239,-2.0249,-2.026,-2.0254,-2.0263,-2.0262,-2.0262,-2.0209,-2.0203,-2.0269,-2.0268,-2.0268,-2.0268,-2.0268,-2.0268,-2.0207,-2.0226,-2.0221,-2.0242,-2.0241,-2.0255,-2.0259,-2.0263,-2.0265,-2.0282,-2.0291,-2.0289,-2.0289,-2.03,-2.0311,-2.0309,-2.0314,-2.0326,-2.0322,-2.0273,-2.0265,-2.0259,-2.0252,-2.0327,-2.0327,-2.0374,-2.0374,-2.0375]},{"header":{"parameterUnit":"m.s-1","parameterCategory":1,"la1":30.2991,"la2":30.254,"lo1":-89.0895,"lo2":-89.0444,"dy":0.0017,"dx":0.0017,"nx":28,"ny":28,"refTime":"2025-11-17T03:00:00:Z","depth":0,"parameterNumber":3,"parameterNumberName":"V-component_of_WINDS"},"data":[0,0,0,0,0,0,0,0,0,0,0,0,0,0,0,0,0,0,0,0,0,0,0,0,0,0,0,0,0,0,0,0,0,0,0,0,0,0,0,0,0,0,0,0,0,0,0,0,0,0,0,0,0,0,0,0,0,0,2.0141,2.0141,0,2.0164,2.0164,2.0165,2.0249,2.0251,2.0253,2.0254,2.027,2.0269,2.0267,0,0,0,0,0,0,0,0,0,0,0,0,0,2.0164,2.0163,2.0141,2.0141,2.0142,2.0164,2.0164,2.0165,2.0248,2.0251,2.0253,2.0255,2.0271,2.0269,2.0267,0,0,0,0,0,0,0,0,0,0,0,0,0,2.0167,2.0163,2.0141,2.0186,2.0191,2.0164,2.0164,2.0165,2.0248,2.0251,2.0254,2.0256,2.0271,2.0269,2.0267,2.0196,0,0,2.0261,2.026,0,0,0,0,0,0,0,0,2.0167,2.0166,2.0179,2.0183,2.0188,2.0207,2.0178,2.0175,2.0247,2.0226,2.0254,2.0258,2.0246,2.0246,2.0244,2.0197,2.0198,2.0261,2.0259,2.0258,2.0258,0,0,0,0,0,0,0,2.0166,2.0165,2.015,2.0179,2.0185,2.0204,2.0207,2.0178,2.0219,2.0228,2.0234,2.0236,2.0249,2.0246,2.0245,2.0198,2.0261,2.0259,2.0258,2.0257,2.0096,2.0093,0,0,0,0,0,0,2.016,2.0165,2.0149,2.0151,2.0184,2.0201,2.0205,2.0198,2.022,2.0226,2.0234,2.024,2.0248,2.0247,2.0246,2.0165,2.0258,2.0257,2.0255,2.0099,2.0095,2.0092,0,0,0,0,0,0,2.0161,2.0158,2.0148,2.0159,2.016,2.0197,2.0188,2.0196,2.0194,2.0224,2.0231,2.0223,2.025,2.0249,2.0209,2.0167,2.0256,2.0254,2.0102,2.0097,2.0093,2.0003,0,0,0,0,0,0,2.0161,2.0158,2.0132,2.0158,2.0159,2.0112,2.0186,2.0195,2.0191,2.0199,2.0216,2.0222,2.0252,2.0212,2.0207,2.0166,2.0252,2.0106,2.01,2.0095,2.001,1.9996,1.9984,0,0,0,0,0,2.0161,2.0104,2.0131,2.0128,2.0128,2.011,2.011,2.0148,2.0187,2.0161,2.0181,2.0221,2.0173,2.0207,2.0202,2.016,2.0109,2.0102,2.0095,2.0016,1.9999,1.9984,0,0,0,0,0,0,2.0069,2.0108,2.0138,2.0088,2.0095,2.0124,2.0092,2.0129,2.0123,2.0131,2.0177,2.018,2.0133,2.0143,2.018,2.0093,2.0148,2.0139,2.0089,2.0073,2.006,2.0058,2.025,0,0,0,0,0,2.0043,2.0027,2.0062,2.0014,2.0016,2.0054,2.0047,2.0077,2.0085,2.0087,2.0105,2.0109,2.0095,2.0085,2.0073,2.0012,2.0017,1.9981,1.9968,1.9957,1.9949,1.9918,1.9903,2.0069,2.0069,2.0069,0,0,1.9989,2.0008,1.9995,1.9996,2.0005,1.9986,2.0055,2.0031,2.0017,2.0083,2.0047,2.006,2.0068,2.0018,1.9996,2.0024,1.9905,1.9948,1.994,1.9937,1.991,1.9894,1.988,2.0065,2.0065,2.0066,0,0,1.988,1.9893,1.9856,1.9865,1.9879,1.9905,1.9895,1.9919,1.9931,1.9897,1.9947,1.9929,1.9904,1.9908,1.9907,1.9803,1.9839,1.9798,1.9729,1.9699,1.9686,1.9674,1.9637,1.9623,1.979,1.979,1.979,0,1.981,1.9785,1.9831,1.9805,1.9804,1.9866,1.9828,1.9833,1.9841,1.9838,1.9871,1.9842,1.9852,1.9804,1.9779,1.9775,1.9766,1.9795,1.9684,1.9673,1.9663,1.9628,1.9614,1.9785,1.9785,1.9786,1.9786,0,1.9698,1.968,1.9647,1.9658,1.9653,1.962,1.9661,1.965,1.968,1.9702,1.9666,1.9681,1.9675,1.9666,1.9694,1.9622,1.9639,1.9677,1.9732,1.9641,1.9609,1.9596,1.9777,1.9779,1.9781,1.9782,0,0,1.9529,1.9568,1.9555,1.9561,1.9583,1.9569,1.9539,1.9536,1.9526,1.953,1.9506,1.9485,1.9521,1.952,1.9549,1.9522,1.9439,1.9564,1.9565,1.954,1.9361,1.9331,1.9315,1.9464,1.9462,1.946,1.936,0,1.9425,1.938,1.9421,1.9366,1.935,1.9411,1.9385,1.9394,1.9415,1.9402,1.9424,1.9408,1.9457,1.9457,1.9434,1.9454,1.9403,1.9462,1.944,1.9439,1.9436,1.9298,1.9267,1.9171,1.9348,1.9346,1.9344,0,1.9298,1.93,1.9245,1.9272,1.9267,1.9243,1.9244,1.9232,1.9244,1.9261,1.9261,1.9298,1.927,1.9326,1.9287,1.9326,1.932,1.9329,1.9326,1.9324,1.9385,1.9292,1.9142,1.9127,1.9325,1.9326,1.9328,0,1.918,1.9169,1.9135,1.9138,1.9169,1.9151,1.9162,1.9178,1.9174,1.9174,1.9172,1.9168,1.9165,1.916,1.9195,1.9233,1.9152,1.921,1.9164,1.9163,1.9143,1.9143,1.8988,1.914,1.914,1.914,1.9141,0,1.906,1.9023,1.9083,1.9061,1.9022,1.9071,1.903,1.9047,1.9061,1.9043,1.9094,1.9076,1.9124,1.911,1.9137,1.9101,1.9099,1.9111,1.9118,1.9106,1.9104,1.9101,1.9109,1.9137,1.9137,1.9138,1.9139,0,1.8921,1.896,1.8926,1.896,1.8967,1.8937,1.8964,1.8945,1.897,1.8947,1.8944,1.8982,1.8969,1.9004,1.8995,1.9014,1.8961,1.898,1.8958,1.8963,1.8915,1.8919,1.8752,1.8732,1.8897,1.8895,1.8894,0,1.8842,1.8816,1.8847,1.884,1.885,1.8838,1.8835,1.8881,1.8876,1.8889,1.8868,1.886,1.8856,1.8832,1.8857,1.8851,1.8869,1.8812,1.8868,1.8857,1.8868,1.8869,1.8867,1.8799,1.8797,1.8795,1.8794,0,1.8696,1.8717,1.8712,1.8714,1.871,1.8713,1.872,1.8711,1.8761,1.8752,1.8741,1.8738,1.8731,1.8722,1.8722,1.8732,1.877,1.8776,1.8765,1.8752,1.874,1.8746,1.8925,1.8779,1.8781,1.8782,1.8783,1.8783,1.8584,1.8564,1.8584,1.8577,1.8588,1.8593,1.8578,1.8602,1.8595,1.8594,1.8622,1.8605,1.8619,1.8624,1.863,1.8617,1.8643,1.8627,1.8622,1.8617,1.8609,1.8743,1.8617,1.8617,1.8618,1.8618,1.8618,0,1.8441,1.8458,1.8451,1.8461,1.8455,1.8496,1.8505,1.8497,1.8483,1.8494,1.849,1.8477,1.8469,1.8496,1.8491,1.8475,1.8493,1.8472,1.8473,1.8475,1.8586,1.8596,1.8458,1.8458,1.8458,1.8459,1.8459,1.8459,1.8366,1.8335,1.8359,1.8333,1.835,1.8336,1.8338,1.8343,1.8352,1.8337,1.8332,1.835,1.8367,1.8365,1.8359,1.8367,1.8362,1.8336,1.8349,1.8452,1.8467,1.8482,1.8492,1.8334,1.8334,1.824,1.8239,1.8238]}]]